| time (UTC) | temp C | wind direction | speed KPH | gust KPH | rain 1hr cm | rain 24hr cm | rain mn cm | humidity % | barometer mb |
| 20260506160739 | 17 | 50 | 12.9 | 0.0 | 0.00 | 0.00 | 0.00 | 11 | 1009.0 |
| 20260506155737 | 17 | 50 | 12.9 | 0.0 | 0.00 | 0.00 | 0.00 | 11 | 1009.0 |
| 20260506154736 | 17 | 50 | 12.9 | 0.0 | 0.00 | 0.00 | 0.00 | 11 | 1009.0 |
| 20260506153734 | 16 | 50 | 12.9 | 0.0 | 0.00 | 0.00 | 0.00 | 11 | 1009.0 |
| 20260506152733 | 16 | 50 | 12.9 | 0.0 | 0.00 | 0.00 | 0.00 | 11 | 1010.0 |
| 20260506151732 | 16 | 50 | 12.9 | 0.0 | 0.00 | 0.00 | 0.00 | 11 | 1010.0 |
| 20260506150730 | 16 | 50 | 12.9 | 0.0 | 0.00 | 0.00 | 0.00 | 11 | 1010.0 |
| 20260506145730 | 16 | 50 | 12.9 | 0.0 | 0.00 | 0.00 | 0.00 | 11 | 1010.0 |
| 20260506144729 | 16 | 50 | 12.9 | 0.0 | 0.00 | 0.00 | 0.00 | 11 | 1010.0 |
| 20260506142514 | 16 | 50 | 12.9 | 0.0 | 0.00 | 0.00 | 0.00 | 11 | 1011.0 |
| 20260506141513 | 16 | 50 | 12.9 | 0.0 | 0.00 | 0.00 | 0.00 | 11 | 1011.0 |
| 20260506140513 | 16 | 50 | 12.9 | 0.0 | 0.00 | 0.00 | 0.00 | 11 | 1011.0 |
| 20260506135510 | 16 | 50 | 12.9 | 0.0 | 0.00 | 0.00 | 0.00 | 12 | 1011.0 |
| 20260506133257 | 16 | 50 | 12.9 | 0.0 | 0.00 | 0.00 | 0.00 | 12 | 1011.0 |
| 20260506132257 | 16 | 50 | 12.9 | 0.0 | 0.00 | 0.00 | 0.00 | 12 | 1012.0 |
| 20260506131256 | 16 | 50 | 12.9 | 0.0 | 0.00 | 0.00 | 0.00 | 12 | 1012.0 |
| 20260506130255 | 15 | 50 | 12.9 | 0.0 | 0.00 | 0.00 | 0.00 | 12 | 1011.0 |
| 20260506125254 | 15 | 50 | 12.9 | 0.0 | 0.00 | 0.00 | 0.00 | 12 | 1011.0 |
| 20260506124253 | 15 | 50 | 12.9 | 0.0 | 0.00 | 0.00 | 0.00 | 12 | 1011.0 |
| 20260506123253 | 15 | 50 | 12.9 | 0.0 | 0.00 | 0.00 | 0.00 | 12 | 1011.0 |
| 20260506122252 | 15 | 50 | 12.9 | 0.0 | 0.00 | 0.00 | 0.00 | 12 | 1012.0 |
| 20260506121250 | 15 | 50 | 12.9 | 0.0 | 0.00 | 0.00 | 0.00 | 12 | 1012.0 |
| 20260506120249 | 15 | 50 | 12.9 | 0.0 | 0.00 | 0.00 | 0.00 | 12 | 1012.0 |
| 20260506115248 | 14 | 50 | 12.9 | 0.0 | 0.00 | 0.00 | 0.00 | 13 | 1012.0 |
| 20260506114247 | 14 | 50 | 12.9 | 0.0 | 0.00 | 0.00 | 0.00 | 13 | 1012.0 |
| 20260506113245 | 14 | 50 | 12.9 | 0.0 | 0.00 | 0.00 | 0.00 | 13 | 1012.0 |
| 20260506111033 | 13 | 80 | 6.4 | 0.0 | 0.00 | 0.00 | 0.00 | 13 | 1013.0 |
| 20260506110031 | 13 | 80 | 6.4 | 0.0 | 0.00 | 0.00 | 0.00 | 13 | 1013.0 |
| 20260506105030 | 13 | 80 | 6.4 | 0.0 | 0.00 | 0.00 | 0.00 | 13 | 1013.0 |
| 20260506104029 | 12 | 90 | 6.4 | 0.0 | 0.00 | 0.00 | 0.00 | 13 | 1013.0 |
| 20260506103029 | 12 | 90 | 6.4 | 0.0 | 0.00 | 0.00 | 0.00 | 13 | 1013.0 |
| 20260506102027 | 12 | 90 | 6.4 | 0.0 | 0.00 | 0.00 | 0.00 | 13 | 1014.0 |
| 20260506101026 | 12 | 160 | 6.4 | 0.0 | 0.00 | 0.00 | 0.00 | 13 | 1014.0 |
| 20260506100025 | 12 | 160 | 6.4 | 0.0 | 0.00 | 0.00 | 0.00 | 13 | 1013.0 |
| 20260506093809 | 11 | 160 | 6.4 | 0.0 | 0.00 | 0.00 | 0.00 | 13 | 1013.0 |
| 20260506092808 | 11 | 160 | 6.4 | 0.0 | 0.00 | 0.00 | 0.00 | 14 | 1014.0 |
| 20260506091807 | 10 | 160 | 6.4 | 0.0 | 0.00 | 0.00 | 0.00 | 15 | 1014.0 |
| 20260506090806 | 10 | 160 | 6.4 | 0.0 | 0.00 | 0.00 | 0.00 | 16 | 1014.0 |
| 20260506085806 | 10 | 160 | 6.4 | 0.0 | 0.00 | 0.00 | 0.00 | 16 | 1014.0 |
| 20260506084805 | 10 | 160 | 6.4 | 0.0 | 0.00 | 0.00 | 0.00 | 16 | 1014.0 |
| 20260506083804 | 9 | 130 | 6.4 | 0.0 | 0.00 | 0.00 | 0.00 | 16 | 1014.0 |
| 20260506081551 | 10 | 130 | 6.4 | 0.0 | 0.00 | 0.00 | 0.00 | 16 | 1015.0 |
| 20260506080549 | 9 | 0 | 1.6 | 0.0 | 0.00 | 0.00 | 0.00 | 16 | 1015.0 |
| 20260506071336 | 3 | 0 | 0.0 | 0.0 | 0.00 | 0.00 | 0.00 | 93 | 1015.0 |
| 20260506070335 | 3 | 0 | 0.0 | 0.0 | 0.00 | 0.00 | 0.00 | 93 | 1015.0 |
| 20260506062121 | 3 | 330 | 4.8 | 0.0 | 0.00 | 0.00 | 0.00 | 10 | 1015.0 |
| 20260506061119 | 4 | 0 | 0.0 | 0.0 | 0.00 | 0.00 | 0.00 | 10 | 1015.0 |
| 20260506050901 | 3 | 0 | 0.0 | 0.0 | 0.00 | 0.00 | 0.00 | 93 | 1015.0 |
| 20260506044900 | 0 | 0 | 0.0 | 0.0 | 0.00 | 0.00 | 0.00 | 10 | 1015.0 |
| 20260506043859 | 1 | 0 | 0.0 | 0.0 | 0.00 | 0.00 | 0.00 | 10 | 1015.0 |
| 20260506040434 | 1 | 0 | 0.0 | 0.0 | 0.00 | 0.00 | 0.00 | 10 | 1015.0 |
| 20260506035432 | 2 | 0 | 0.0 | 0.0 | 0.00 | 0.00 | 0.00 | 10 | 1015.0 |
| 20260506034430 | 2 | 0 | 0.0 | 0.0 | 0.00 | 0.00 | 0.00 | 10 | 1015.0 |
| 20260506033429 | 3 | 0 | 0.0 | 0.0 | 0.00 | 0.00 | 0.00 | 10 | 1015.0 |
| 20260506032428 | 0 | 0 | 0.0 | 0.0 | 0.00 | 0.00 | 0.00 | 10 | 1015.0 |
| 20260506031428 | 1 | 0 | 0.0 | 0.0 | 0.00 | 0.00 | 0.00 | 10 | 1015.0 |
| 20260506030427 | 1 | 0 | 0.0 | 0.0 | 0.00 | 0.00 | 0.00 | 10 | 1015.0 |
| 20260506025426 | 2 | 0 | 0.0 | 0.0 | 0.00 | 0.00 | 0.00 | 10 | 1015.0 |
| 20260506023214 | 2 | 0 | 0.0 | 0.0 | 0.00 | 0.00 | 0.00 | 10 | 1015.0 |
| 20260506022214 | 3 | 0 | 0.0 | 0.0 | 0.00 | 0.00 | 0.00 | 10 | 1015.0 |
| 20260506021213 | 1 | 0 | 0.0 | 0.0 | 0.00 | 0.00 | 0.00 | 10 | 1016.0 |
| 20260506020210 | 1 | 0 | 0.0 | 0.0 | 0.00 | 0.00 | 0.00 | 10 | 1016.0 |
| 20260506015209 | 2 | 0 | 0.0 | 0.0 | 0.00 | 0.00 | 0.00 | 10 | 1016.0 |
| 20260506014207 | 2 | 0 | 0.0 | 0.0 | 0.00 | 0.00 | 0.00 | 10 | 1016.0 |
| 20260506013207 | 3 | 0 | 0.0 | 0.0 | 0.00 | 0.00 | 0.00 | 10 | 1016.0 |
| 20260506012206 | 3 | 0 | 0.0 | 0.0 | 0.00 | 0.00 | 0.00 | 10 | 1016.0 |
| 20260506005950 | 4 | 0 | 0.0 | 0.0 | 0.00 | 0.00 | 0.00 | 10 | 1016.0 |
| 20260506004949 | 1 | 270 | 6.4 | 0.0 | 0.00 | 0.00 | 0.00 | 93 | 1016.0 |
| 20260506003947 | 1 | 270 | 6.4 | 0.0 | 0.00 | 0.00 | 0.00 | 93 | 1016.0 |
| 20260506002946 | 2 | 270 | 6.4 | 0.0 | 0.00 | 0.00 | 0.00 | 93 | 1016.0 |
| 20260506001945 | 2 | 270 | 6.4 | 0.0 | 0.00 | 0.00 | 0.00 | 93 | 1016.0 |
| 20260506000943 | 3 | 270 | 6.4 | 0.0 | 0.00 | 0.00 | 0.00 | 93 | 1016.0 |
| 20260505235942 | 3 | 270 | 6.4 | 0.0 | 0.00 | 0.00 | 0.00 | 93 | 1016.0 |
| 20260505234941 | 4 | 270 | 6.4 | 0.0 | 0.00 | 0.00 | 0.00 | 93 | 1016.0 |
| 20260505232730 | 5 | 270 | 6.4 | 0.0 | 0.00 | 0.00 | 0.00 | 93 | 1016.0 |
| 20260505225305 | 5 | 270 | 6.4 | 0.0 | 0.00 | 0.00 | 0.00 | 93 | 1016.0 |
| 20260505224301 | 2 | 20 | 20.9 | 0.0 | 0.00 | 0.00 | 0.00 | 11 | 1016.0 |
| 20260505223300 | 2 | 20 | 20.9 | 0.0 | 0.00 | 0.00 | 0.00 | 11 | 1016.0 |
| 20260505222259 | 3 | 20 | 20.9 | 0.0 | 0.00 | 0.00 | 0.00 | 11 | 1016.0 |
| 20260505214836 | 3 | 20 | 20.9 | 0.0 | 0.00 | 0.00 | 0.00 | 11 | 1015.0 |
| 20260505212621 | 4 | 20 | 20.9 | 0.0 | 0.00 | 0.00 | 0.00 | 11 | 1015.0 |
| 20260505210405 | 5 | 20 | 20.9 | 0.0 | 0.00 | 0.00 | 0.00 | 11 | 1015.0 |
| 20260505205405 | 5 | 20 | 20.9 | 0.0 | 0.00 | 0.00 | 0.00 | 11 | 1015.0 |
| 20260505204403 | 6 | 20 | 20.9 | 0.0 | 0.00 | 0.00 | 0.00 | 11 | 1015.0 |
| 20260505203402 | 6 | 20 | 20.9 | 0.0 | 0.00 | 0.00 | 0.00 | 11 | 1015.0 |
| 20260505202400 | 7 | 20 | 20.9 | 0.0 | 0.00 | 0.00 | 0.00 | 11 | 1014.0 |
| 20260505201358 | 7 | 20 | 20.9 | 0.0 | 0.00 | 0.00 | 0.00 | 11 | 1014.0 |
| 20260505200357 | 8 | 20 | 17.7 | 0.0 | 0.00 | 0.00 | 0.00 | 11 | 1014.0 |
| 20260505195357 | 8 | 20 | 17.7 | 0.0 | 0.00 | 0.00 | 0.00 | 11 | 1014.0 |
| 20260505194356 | 9 | 20 | 17.7 | 0.0 | 0.00 | 0.00 | 0.00 | 11 | 1014.0 |
| 20260505192143 | 10 | 250 | 17.7 | 0.0 | 0.00 | 0.00 | 0.00 | 11 | 1013.0 |
| 20260505191142 | 10 | 250 | 17.7 | 0.0 | 0.00 | 0.00 | 0.00 | 11 | 1013.0 |
| 20260505190141 | 11 | 250 | 17.7 | 0.0 | 0.00 | 0.00 | 0.00 | 11 | 1013.0 |
| 20260505185140 | 11 | 250 | 17.7 | 0.0 | 0.00 | 0.00 | 0.00 | 11 | 1013.0 |
| 20260505184140 | 12 | 250 | 19.3 | 0.0 | 0.00 | 0.00 | 0.00 | 11 | 1013.0 |
| 20260505181925 | 12 | 250 | 19.3 | 0.0 | 0.00 | 0.00 | 0.00 | 11 | 1013.0 |
| 20260505180924 | 13 | 300 | 17.7 | 38.6 | 0.00 | 0.00 | 0.00 | 11 | 1013.0 |
| 20260505175924 | 13 | 300 | 17.7 | 38.6 | 0.00 | 0.00 | 0.00 | 11 | 1013.0 |
| 20260505172456 | 14 | 300 | 19.3 | 38.6 | 0.00 | 0.00 | 0.00 | 11 | 1013.0 |
| 20260505171454 | 13 | 300 | 19.3 | 38.6 | 0.00 | 0.00 | 0.00 | 11 | 1013.0 |
| 20260505170452 | 13 | 280 | 17.7 | 0.0 | 0.00 | 0.00 | 0.00 | 11 | 1013.0 |
| 20260505164240 | 13 | 280 | 17.7 | 0.0 | 0.00 | 0.00 | 0.00 | 11 | 1013.0 |
| 20260505163238 | 14 | 280 | 17.7 | 0.0 | 0.00 | 0.00 | 0.00 | 11 | 1013.0 |
| 20260505162237 | 15 | 280 | 17.7 | 0.0 | 0.00 | 0.00 | 0.00 | 11 | 1013.0 |